Simultaneous Nadir Overpasses (SNOs) Predictions

Prediction of SNOs between NPP and TERRA Satellite Orbit:

Table of predicted SNOs for the next 14.0 days since TLE Epoch: 9/2/2017
Index Date (NPP) Time (NPP) Lat,Lon (NPP) SZA (NPP ) Date (TERRA) Time (TERRA) Lat,Lon (TERRA) SZA (TERRA ) Distance(km) Time Diff (sec)
1 09/02/2017 10:39:37 -68.64,-161.57 119.22 09/02/2017 10:40:48 -68.57,-161.17 119.30 17.81 71
2 09/02/2017 11:30:17 68.30, 6.18 60.45 09/02/2017 11:30:18 68.30, 6.14 60.45 1.52 1
3 09/02/2017 12:20:59 -68.22, 173.61 119.63 09/02/2017 12:19:48 -68.19, 173.64 119.66 3.25 71
4 09/05/2017 02:56:30 -68.42, -45.51 118.47 09/05/2017 02:57:20 -68.42, -45.49 118.47 0.96 50
5 09/05/2017 03:47:13 68.24, 122.02 61.37 09/05/2017 03:46:48 68.25, 121.96 61.38 2.87 25
6 09/05/2017 04:37:40 -67.34, -69.55 119.52 09/05/2017 04:36:32 -67.36, -71.43 119.49 80.46 68
7 09/07/2017 18:23:00 69.30, -98.27 63.42 09/07/2017 18:24:07 69.20, -96.26 63.30 79.81 67
8 09/07/2017 19:13:26 -68.35, 70.34 117.53 09/07/2017 19:13:50 -68.36, 70.33 117.53 1.07 24
9 09/07/2017 20:04:10 68.24,-122.20 62.36 09/07/2017 20:03:17 68.25,-122.16 62.38 2.58 53
10 09/10/2017 10:39:40 68.44, 18.67 63.56 09/10/2017 10:40:48 68.46, 18.69 63.57 2.46 68
11 09/10/2017 11:30:21 -68.29,-173.82 116.58 09/10/2017 11:30:19 -68.30,-173.87 116.58 2.15 2
12 09/10/2017 12:21:01 67.96, -6.09 63.10 09/10/2017 12:19:49 68.02, -6.56 63.16 20.64 72
13 09/13/2017 02:56:36 68.39, 134.51 64.52 09/13/2017 02:57:18 68.39, 134.48 64.52 1.22 42
14 09/13/2017 03:47:18 -68.29, -58.05 115.57 09/13/2017 03:46:48 -68.29, -58.01 115.57 1.73 30
15 09/15/2017 18:23:01 -69.14, 81.95 113.71 09/15/2017 18:24:10 -69.04, 83.52 113.82 63.32 69
16 09/15/2017 19:13:33 68.38,-109.72 65.55 09/15/2017 19:13:47 68.36,-109.67 65.52 3.14 14
17 09/15/2017 20:04:14 -68.23, 57.79 114.60 09/15/2017 20:03:18 -68.21, 57.78 114.62 3.02 56




NCC Satellite Simultaneous Nadir Overpasses (SNOs) Prediction Service
